{"data":{"norad_id":66454,"intl_designator":"2025-261A","name":"VIASAT-3 F2","alt_names":[],"object_type":"PAYLOAD","status":"ACTIVE","operator":null,"country":"US","launch_date":"2025-11-14","launch_site_code":"AFETR","launch_vehicle":null,"mission":null,"orbit_class":"UNKNOWN","rcs_meters":null,"size_class":null,"mass_kg":null,"dimensions":null,"purposes":["comms"],"wikipedia_slug":null,"has_3d_model":false,"image_url":null,"decayed_at":null,"tle_current":{"epoch":"2026-09-20T01:50:32.572032Z","epoch_age_seconds":54944,"freshness":"FRESH","line1":"1 66454U 25261A   26263.07676588 -.00000238  00000+0  00000+0 0  9999","line2":"2 66454   0.0051 203.9585 0000910  59.9525  43.7157  1.00272636  3748","mean_motion":1.00272636,"eccentricity":9.1e-5,"inclination_deg":0.0051,"raan_deg":203.9585,"arg_perigee_deg":59.9525,"mean_anomaly_deg":43.7157,"bstar":0,"rev_number":374,"period_min":1436.0847160735,"perigee_km":35782.519427787,"apogee_km":35790.193365585,"semimajor_km":42164.493396686,"source":"CELESTRAK","updated_at":"2026-09-20T09:00:35.346806Z"}}}